Home   Weather   Samsun   Past weeks

Flag for Turkey Past Weather in Samsun, Turkey — Yesterday and Last 2 Weeks

Now
63 °F

Broken clouds.


Feels Like: 63 °F
Forecast: 47 / 68 °F
Wind: 7 mph from Northwest

Location: Samsun / Carsamba

Current Time: May 26, 2017 at 6:11:52 pm

Latest Report: May 26, 2017 at 4:50 pm


Visibility: N/A

Pressure: 29.89 "Hg

Humidity: 83%

Dew Point: 57 °F

Location of SamsunLocation

Past Weather in Samsun — Graph

°F

Samsun Temperature Yesterday

Maximum temperature yesterday: 70 °F (at 11:50 am)
Minimum temperature yesterday: 46 °F (at 3:50 am)
Average temperature yesterday: 59 °F

High & Low Weather Summary for the Past Weeks

 TemperatureHumidityPressure
High86 °F (May 13, 11:50 am)100% (May 12, 5:50 am)30.18 "Hg (May 12, 5:50 am)
Low41 °F (May 21, 4:50 am)34% (May 13, 5:50 pm)29.71 "Hg (May 21, 1:50 pm)
Average58 °F81%29.98 "Hg
* Reported May 11 4:50 pm — May 26 4:50 pm, Samsun. Weather by CustomWeather, © 2017

Note: Actual official high and low records may vary slightly from our data, if they occured in-between our weather recording intervals... More about our weather records

Advertising

Samsun Weather History for the Previous 24 Hours

Scroll right to see more
 ConditionsComfort  
Time TempWeatherWind HumidityBarometerVisibility
4:50 pm
Fri, May 26
63 °FBroken clouds.7 mph83%29.89 "HgN/A
3:50 pm64 °FBroken clouds.5 mph78%29.89 "HgN/A
2:50 pm64 °FBroken clouds.7 mph78%29.89 "HgN/A
1:50 pm66 °FBroken clouds.3 mph68%29.92 "HgN/A
12:50 pm64 °FBroken clouds.7 mph73%29.92 "HgN/A
11:50 am64 °FBroken clouds.2 mph73%29.92 "HgN/A
10:50 am64 °FBroken clouds.3 mph68%29.95 "HgN/A
9:50 am61 °FBroken clouds.2 mph72%29.95 "HgN/A
8:50 am61 °FBroken clouds.No wind72%29.95 "HgN/A
7:50 am59 °FBroken clouds.3 mph77%29.98 "HgN/A
6:50 am57 °FBroken clouds.2 mph82%29.95 "HgN/A
5:50 am57 °FBroken clouds.3 mph82%29.95 "HgN/A
4:50 am57 °FPartly cloudy.No wind88%29.95 "HgN/A
3:50 am57 °FPartly cloudy.No wind88%29.98 "HgN/A
2:50 am57 °FPassing clouds.No wind88%29.95 "HgN/A
1:50 am57 °FPassing clouds.No wind88%29.98 "HgN/A
12:50 am57 °FPassing clouds.No wind88%29.98 "HgN/A
11:50 pm
Thu, May 25
57 °FPassing clouds.2 mph88%30.01 "HgN/A
10:50 pm57 °FPassing clouds.2 mph88%30.01 "HgN/A
9:50 pm57 °FPassing clouds.2 mph88%30.01 "HgN/A
8:50 pm57 °FPassing clouds.3 mph88%30.01 "HgN/A
7:50 pm59 °FPassing clouds.6 mph77%30.01 "HgN/A
6:50 pm63 °FPassing clouds.7 mph73%30.01 "HgN/A
Weather by CustomWeather, © 2017

See weather overviewHow to use our weather pages